Starlink 33730

operational
NORAD ID: 63439 Int'l Des: 2025-069 Owner: SPXS Country: US Constellation: starlink
LEOCIRCULAR

Starlink 33730について

説明を読み込み中...

リアルタイム位置

3D地球を読み込み中...

次回通過

高度履歴

Altitude vs Time

uPlot chart will show altitude changes over time

軌道要素

1 63439U 25069G 25355.14991653 .00025667 00000-0 87572-3 0 9993
2 63439 53.1547 147.0232 0001676 85.9946 274.1246 15.30200047 41386
Epoch: Dec 21, 2025 • Age: 10 hours

現在のステータス

高度 479.4 km
速度 7.63 km/s
衛星直下点 47.75°N, 89.54°W
打ち上げ日 Apr 4, 2025
運用期間 0.7 years
タイプ internet

技術仕様

分類 Payload
質量 575.00 kg
乾燥質量 530.00 kg
総質量 575.00 kg
長さ 0.30 m
直径 4.10 m
スパン 29.00 m
形状 Box + pan
製造者 SPXS
バスタイプ Starlink V2MO
フェーズステータス In Orbit
所有者/国 SPXS/US

大規模コンステレーション

Loading constellations...